Flag for Portugal Weather past 2 weeks in Setúbal, Portugal

Now
75 °F

Clear.


Feels Like: 78 °F
Forecast: 61 / 84 °F
Wind: 10 mph from Northwest

Location: Lisbon Portela Airport

Current Time: Sep 1, 2014 at 10:21:54 PM

Latest Report: Sep 1, 2014 at 10:00 PM


Visibility: 10 mi

Pressure: 29.92 "Hg

Humidity: 47%

Dew point: 54 °F

Location of SetúbalLocation

Historic Weather in Setúbal — Graph

°F

Setúbal temperature yesterday

Maximum temperature yesterday: 84 °F (at 3:00 PM)
Minimum temperature yesterday: 63 °F (at 5:00 AM)
Average temperature yesterday: 72 °F

Past Weeks' High & Low Weather Summary

 TemperatureHumidityPressure
High93 °F (Sep 1, 2:30 PM)94% (Aug 20, 6:00 AM)30.12 "Hg (Aug 20, 6:00 AM)
Low59 °F (Aug 25, 4:00 AM)22% (Aug 31, 6:00 PM)29.83 "Hg (Aug 17, 9:00 PM)
Average71 °F67%30.03 "Hg
* Reported Aug 17 9:00 PM — Sep 1 9:00 PM, Setúbal, Weather by CustomWeather, © 2014

Note: Actual official high and low records may vary slightly from our data, if they occured in-between our weather recording intervals... More about our weather records

Advertising

Setúbal weather history for previous 24 hours

 ConditionsComfort  
Time TempWeatherWind HumidityBarometerVisibility
9:00 PM
Sep 1
77 °FSunny.14 mph47%29.92 "Hg10 mi
8:30 PM77 °FSunny.15 mph44%29.89 "Hg10 mi
8:00 PM79 °FSunny.15 mph42%29.89 "Hg10 mi
7:30 PM82 °FSunny.15 mph32%29.89 "Hg10 mi
7:00 PM84 °FSunny.12 mph25%29.89 "Hg10 mi
6:30 PM86 °FSunny.12 mph25%29.89 "Hg10 mi
6:00 PM86 °FSunny.14 mph25%29.89 "Hg10 mi
5:00 PM91 °FPassing clouds.8 mph26%29.89 "HgN/A
4:30 PM91 °FPassing clouds.9 mph26%29.92 "HgN/A
4:00 PM93 °FSunny.10 mph24%29.92 "Hg10 mi
3:30 PM93 °FPassing clouds.8 mph26%29.92 "HgN/A
3:00 PM93 °FPassing clouds.6 mph26%29.92 "HgN/A
2:30 PM93 °FClear.3 mph26%29.92 "HgN/A
2:00 PM91 °FSunny.5 mph28%29.95 "Hg10 mi
1:30 PM91 °FSunny.5 mph28%29.95 "Hg10 mi
1:00 PM90 °FPassing clouds.5 mph27%29.95 "HgN/A
12:30 PM88 °FPassing clouds.6 mph33%29.98 "HgN/A
12:00 PM84 °FPassing clouds.5 mph48%29.98 "HgN/A
11:30 AM82 °FPassing clouds.5 mph51%29.98 "HgN/A
11:00 AM84 °FSunny.2 mph43%29.98 "Hg10 mi
10:30 AM82 °FSunny.3 mph40%29.98 "Hg10 mi
10:00 AM77 °FPassing clouds.5 mph44%29.98 "HgN/A
9:30 AM72 °FPassing clouds.3 mph57%29.98 "HgN/A
9:00 AM72 °FPassing clouds.5 mph50%29.98 "HgN/A
8:30 AM72 °FSunny.2 mph44%29.98 "Hg10 mi
8:00 AM70 °FClear.1 mph50%29.95 "Hg10 mi
7:30 AM68 °FClear.3 mph46%29.95 "Hg10 mi
7:00 AM66 °FClear.2 mph46%29.95 "Hg10 mi
6:30 AM63 °FClear.No wind59%29.95 "Hg10 mi
6:00 AM64 °FClear.No wind56%29.95 "Hg10 mi
5:30 AM64 °FClear.1 mph52%29.95 "Hg10 mi
5:00 AM66 °FClear.2 mph46%29.95 "Hg10 mi
4:30 AM68 °FClear.2 mph40%29.95 "Hg10 mi
4:00 AM68 °FClear.2 mph46%29.95 "Hg10 mi
3:30 AM66 °FClear.1 mph49%29.95 "Hg10 mi
3:00 AM68 °FClear.1 mph43%29.95 "Hg10 mi
2:30 AM70 °FPassing clouds.3 mph35%29.98 "HgN/A
2:00 AM70 °FClear.2 mph38%29.98 "Hg10 mi
1:30 AM68 °FPassing clouds.5 mph43%29.98 "HgN/A
1:00 AM70 °FClear.7 mph46%29.98 "Hg10 mi
12:30 AM70 °FPassing clouds.3 mph46%29.98 "HgN/A
12:00 AM70 °FClear.8 mph43%29.98 "Hg10 mi
11:30 PM
Aug 31
70 °FClear.8 mph53%29.98 "Hg10 mi
11:00 PM70 °FClear.12 mph64%29.98 "Hg10 mi
10:00 PM70 °FClear.8 mph73%29.98 "Hg10 mi
Weather by CustomWeather, © 2014

See weather overviewHow to use our weather pages